• Processing (Info)

  • MPEC 2020-M66 : 2020 MF1

    The following Minor Planet Electronic Circular may be linked-to from your own Web pages, but must not otherwise be redistributed electronically.

    A form allowing access to any MPEC is at the bottom of this page.


    Read MPEC 2020-M65 Read MPEC 2020-M67


    M.P.E.C. 2020-M66                                 Issued 2020 June 22, 11:30 UT
    
         The Minor Planet Electronic Circulars contain information on unusual
             minor planets and routine data on comets.  They are published
        on behalf of Division F of the International Astronomical Union by the
              Minor Planet Center, Smithsonian Astrophysical Observatory,
                              Cambridge, MA 02138, U.S.A.
    
                 Prepared using the Tamkin Foundation Computer Network
    
                                  MPC@CFA.HARVARD.EDU
                URL https://www.minorplanetcenter.net/    ISSN 1523-6714
    
                                    2020 MF1                                 
    
    
    Observations:
         K20M01F  C2020 06 17.35715116 10 53.644-14 48 30.82         22.6 GVEM066F51
         K20M01F  C2020 06 17.36903216 10 52.497-14 48 18.56         22.7 GVEM066F51
         K20M01F  C2020 06 17.38088816 10 51.336-14 48 05.55         22.9 GVEM066F51
         K20M01F  C2020 06 17.39272816 10 50.225-14 47 52.89         22.5 GVEM066F51
         K20M01F* C2020 06 21.34641116 07 20.604-13 00 26.41         22.34wUEM066F51
         K20M01F  C2020 06 21.35875016 07 18.557-12 59 54.91         21.87wUEM066F51
         K20M01F  C2020 06 21.37110016 07 16.505-12 59 22.89         21.95wUEM066F51
         K20M01F  C2020 06 21.38342716 07 14.465-12 58 50.60         21.66wUEM066F51
         K20M01F ^C2020 06 22.37742016 05 47.404-12 08 35.55         21.26GVEM066568
         K20M01F ^C2020 06 22.37839116 05 47.202-12 08 32.05         21.32GVEM066568
         K20M01F ^C2020 06 22.37933816 05 47.010-12 08 28.60         21.33GVEM066568
         K20M01F ^C2020 06 22.38029916 05 46.813-12 08 25.16         21.30GVEM066568
    
    Observer details:
    568 Mauna Kea.  Observers R. Wainscoat, H. Januszewski, S. Prunet.  Measurers
        R. Weryk, R. Wainscoat.  3.6-m Canada-France-Hawaii Telescope + CCD.
    F51 Pan-STARRS 1, Haleakala.  Observers J. Bulger, K. Chambers, T. Lowe, A.
        Schultz, M. Willman.  Measurers S. Chastel, M. Huber, Y. Ramanjooloo, R.
        Wainscoat, R. Weryk, K. Chambers, T. de Boer, L. Denneau, J. Fairlamb, H.
        Flewelling, C.-C. Lin, E. Magnier.  1.8-m Ritchey-Chretien + CCD.
    
    Orbital elements:
    2020 MF1                                                 Earth MOID = 0.0029 AU
    Epoch 2020 May 31.0 TT = JDT 2459000.5                  Veres
    M 337.32314              (2000.0)            P               Q
    n   0.37085296     Peri.  213.87599     +0.75395649     +0.65667423
    a   1.9186756      Node   105.06655     -0.59847780     +0.69799308
    e   0.5184623      Incl.    1.07560     -0.27087623     +0.28563020
    P   2.66           H   27.6           G   0.15           U   7
    Residuals in seconds of arc
    200617 F51  0.1+  0.1-    200621 F51  0.0   0.0     200622 568  0.1-  0.0
    200617 F51  0.0   0.2-    200621 F51  0.0   0.0     200622 568  0.1-  0.0
    200617 F51  0.3-  0.2+    200621 F51  0.0   0.0     200622 568  0.1-  0.0
    200617 F51  0.1+  0.1+    200621 F51  0.1+  0.1+    200622 568  0.1-  0.1-
    
    Ephemeris:
    2020 MF1                 a,e,i = 1.92, 0.52, 1                   q = 0.9239
    Date    TT    R. A. (2000) Decl.     Delta      r    Elong.  Phase     V
    2020 05 23    16 20 19.2 -17 35 42   0.2359  1.2475   174.3     4.6    25.3
    ...
    2020 06 07    16 15 56.3 -16 29 34   0.1293  1.1415   167.7    10.9    24.1
    ...
    2020 06 15    16 12 17.9 -15 21 56   0.07829 1.0893   159.1    19.4    23.2
    ...
    2020 06 21    16 07 44.9 -13 12 33   0.04161 1.0531   151.7    27.2    22.0
    2020 06 22    16 06 26.0 -12 27 26   0.03558 1.0474   150.2    28.8    21.7
    2020 06 23    16 04 41.5 -11 24 37   0.02958 1.0417   148.4    30.7    21.4
    ...
    2020 06 29    05 01 25.4 +40 57 25   0.0075021.0099    26.0   153.8    26.2
    ...
    2020 07 07    04 19 09.1 +19 56 58   0.05518 0.9742    38.7   139.3    28.0
    ...
    2020 07 22    04 24 54.8 +18 24 28   0.1476  0.9324    52.0   120.9    28.2
    
    M. P. C. Staff               (C) Copyright 2020 MPC           M.P.E.C. 2020-M66
    


    Read MPEC 2020-M65 Read MPEC 2020-M67


    MPEC number:

    Enter an MPEC number in one of the following forms:

    • 1997-B01 (the full form)
    • J97B01 (the packed version of the full form)
    • B01 (the abbreviated form)